Sheriff Indiana Allen County Courthouse Allen County Sheriff's Department - Ken Fries, Sheriff | Allen County, Indiana
Sheriff Ken Fries

Activity Logs

Activity Log for August 1, 2013

Back to List of Log Dates


Incident Time Nature Address
13A034360 00:10:14 30 Traffic Stop 45xx Sr 1 & Old Ridge Dr
13A034361 00:14:51 123 Leo/cedarvi 150xx Sr 1
13A034362 00:19:31 48,35 135xx Sr 1
13A034363 00:32:22 48,36 47xx Honey Oak Run & Holly Oak Rd
13A034364 00:50:16 30 Traffic Stop 27xx Dupont Rd E & Longwood Dr
13A034365 01:07:41 48 Suspicious 115xx Linden Grove Dr
13A034366 01:08:42 48,36 172xx Sr 1
13A034367 01:32:52 48 Suspicious 58xx River Run Trl & St Joe Center
13A034368 02:10:42 129 111xx Schlatter Rd
13A034369 02:17:27 30 Traffic Stop 110xx Grabill Rd & Schwartz Rd
13A034370 02:21:56 48 Suspicious 2 Adams Center Roundabout & Marion
13A034371 02:28:36 Test Law 78xx Maples Rd
13A034372 02:59:18 30 Traffic Stop 3xx Washington Center Rd W & Indus
13A034373 03:00:30 48,35 70xx Garman Rd
13A034374 03:29:28 40a Audible 126xx Us 33
13A034375 04:18:05 25 Pd Accident 193xx Mcnabb Rd & Northcounty Line
13A034376 04:47:20 48 Suspicious 61xx Sr 930 E & Adams Center Rd
13A034377 04:54:47 44lm 24xx Lambert Ln
13A034378 05:45:25 15 Assist 92xx Timber Ridge Ct
13A034379 06:04:49 123 Leo/cedarvi 150xx Sr 1
13A034380 06:11:08 911 Hang Up 142xx Edgerton Rd
13A034381 06:14:03 15 Assist 7xx Timberlake Trl
13A034382 06:20:47 46,96 107xx Us 27 S
13A034383 06:37:25 11 Pick Up Pris 1 Oc
13A034384 06:38:08 11 Pick Up Pris 1 Oc
13A034385 06:42:11 40a Audible 4xx Union Chapel Rd
13A034386 07:14:55 111d Dog 136xx Sandstone Ct
13A034387 07:20:12 25 Pd Accident 103xx Bluffton Rd & Ferguson Rd W
13A034388 07:33:56 30 Traffic Stop 53xx Illinois Rd & Ansley Dr
13A034389 08:07:25 25 Pd Accident 39xx Heron Preserve Trl
13A034390 08:15:18 48 Suspicious 55xx Hosler Rd & Tonkel Rd
13A034391 08:16:51 34 Traff Hazard 316xx I 69 Nb
13A034392 08:20:03 11 Pick Up Pris 50xx Hanna St S
13A034393 08:35:09 108 Followup 1 Main St E
13A034394 08:36:30 48,36 74xx Winchester Rd & Kinnerk Rd
13A034395 08:44:57 14s Serving War 8xx Home Ave
13A034396 08:46:51 15 Assist 8xx Huffman St
13A034397 08:51:47 111i Injured 153xx Cypress Pointe Dr
13A034398 08:59:01 80p Serving Po 42xx Earth Dr
13A034399 09:01:14 14s Serving War 17xx Babcock Dr
13A034400 09:04:29 14s Serving War 27xx Washington Center Rd W
13A034401 09:08:42 120 Grabill 135xx State St
13A034402 09:20:41 50 Burglary 70xx Hosler Rd
13A034403 09:25:15 40a Audible 109xx Monte Vista Ct
13A034404 09:33:52 33 Disabled Veh 320xx I 69 Nb
13A034405 09:39:58 80p Serving Po 21xx Lansing Ave
13A034406 09:47:12 14s Serving War 27xx Southway Dr
13A034407 10:01:04 25 Pd Accident 70xx Us 33 & Johnson Rd
13A034408 10:03:46 14s Serving War 24xx Fairfield Ave
13A034409 10:07:50 16,97 100xx Wheatfield Ln
13A034410 10:16:15 108 Followup 146xx Amstutz Rd
13A034411 10:22:59 48 Suspicious 1xx Jefferson Blvd E & Calhoun St
13A034412 10:26:48 11 Pick Up Pris 6xx Calhoun St S
13A034413 10:32:31 30 Traffic Stop 71xx Clinton St N & Auburn Rd
13A034414 10:43:42 35 Parked Vehic 212xx Us 30 E & Sr 101 S
13A034415 10:48:45 14s Serving War 19xx Mary St
13A034416 10:50:56 108 Followup 109xx Westmore Ct
13A034417 10:56:19 80p Serving Po 33xx Paulding Rd E
13A034418 11:05:35 1 Meet 80xx Jefferson Blvd W
13A034419 11:16:26 14s Serving War 1xx Suttenfield Ave E
13A034420 11:34:59 108 Followup 185xx Mcnabb Rd
13A034421 11:36:05 40a Audible 141xx Sr 1
13A034422 11:37:43 11 Pick Up Pris 1 Oc
13A034423 11:38:05 80p Serving Po 3xx Northeast Dr
13A034424 11:43:06 48 Suspicious 300xx I 69 Sb & Ellison Rd
13A034425 11:49:12 48 Suspicious 169xx Sr 1
13A034426 11:50:09 44 Nuisance 72xx Westhamilton Rd S
13A034427 12:00:43 46 Domestic 124xx Spencerville Rd
13A034428 12:02:04 30 Traffic Stop 55xx Sr 1 & Tonkel Rd
13A034429 12:11:16 11 Pick Up Pris 7xx Broadway
13A034430 12:23:40 80p Serving Po 40xx Calhoun St S
13A034431 12:30:02 Test Law 169xx Sr 1
13A034432 12:32:12 14s Serving War 4xx Greenwood Ave
13A034433 12:33:26 80p Serving Po 10xx Home Ave
13A034434 12:34:45 15 Assist 317xx I 69 Sb
13A034435 12:36:07 22i Juv Invest 14xx Lake Ave & Delta Blvd
13A034436 12:37:57 25 Pd Accident 23xx Roussey Rd N & Bremer Rd
13A034437 12:39:34 80p Serving Po 12xx Park Ave
13A034438 12:40:17 108 Followup 143xx Whitetail Run
13A034439 12:40:47 14s Serving War 12xx Boone St
13A034440 12:43:17 35 Parked Vehic 126xx Winchester Rd & I 469 Nb
13A034441 12:48:37 30 Traffic Stop 23xx I 469 Sb
13A034442 12:52:15 80p Serving Po 30xx Barr St S
13A034443 12:59:02 25 Pd Accident 103xx Aboite Center Rd
13A034444 13:00:56 30 Traffic Stop 141xx Us 30 E & Old Lincoln Hwy E
13A034445 13:02:41 14s Serving War 22xx Bryant Ct
13A034446 13:03:49 80p Serving Po 24xx John St
13A034447 13:12:53 80p Serving Po 29xx Reed St
13A034448 13:15:28 25 Pd Accident 100xx Black St
13A034449 13:16:56 14s Serving War 83xx Lakeside Ct
13A034450 13:36:39 50,attempted 22xx Plateau Pt
13A034451 13:51:34 40a Audible 12xx Almdale Dr
13A034452 14:04:31 15 Assist 57xx Sr 930 E & New Haven Ave
13A034453 14:10:04 14s Serving War 2xx Lincoln Hwy W
13A034454 14:16:25 108 Followup 6xx State Blvd W
13A034455 14:21:43 46,96 63xx Schlatter Rd
13A034456 14:23:13 63 Contact 76xx Jefferson Blvd W
13A034457 14:36:51 30 Traffic Stop 47xx Washington Blvd E & Meyer Rd
13A034458 14:38:49 1 Meet 259xx Foote Rd
13A034459 14:46:26 14s Serving War 27xx Chestnut St
13A034460 14:53:40 14s Serving War 30xx Mcdonald St
13A034461 15:02:30 111c Cat 52xx Southern Hills Dr
13A034462 15:06:52 14s Serving War 36xx Raymond Ave
13A034463 15:09:28 30 Traffic Stop 10xx Hadley Rd N & Lincoln Pkwy
13A034464 15:11:40 43 Disturbance 121xx Beavans Rd
13A034465 15:12:59 14s Serving War 29xx Schele Ave
13A034466 15:17:09 30 Traffic Stop 16xx Sherman Blvd
13A034467 15:21:42 30 Traffic Stop 108xx Sr 930 E & Minnich Rd
13A034468 15:27:33 30 Traffic Stop 41xx Washington Center Rd W & Gosh
13A034469 15:44:08 30 Traffic Stop 72xx Carroll Rd & Johnson Rd
13A034470 15:45:07 30 Traffic Stop 118xx Us 30 W & Solon Rd
13A034471 15:47:02 46 Domestic 71xx Snyder Rd
13A034472 15:49:15 33,34 4xx Clinton St S & Superior St E
13A034473 15:53:09 30 Traffic Stop 58xx Lima Rd & Washington Center R
13A034474 15:56:27 Ems 1xx Woodlake Run
13A034475 15:56:29 108 Followup 55xx Coldwater Rd
13A034476 15:57:35 80p Serving Po 17xx Beacon St
13A034477 16:06:04 25hs Hit Skip 18xx Medina Cv
13A034478 16:13:06 30 Traffic Stop 91xx Us 33 & Grisamer Rd
13A034479 16:16:40 25 Pd Accident 43xx Homestead Rd
13A034480 16:24:40 17r Reread 28xx Kroemer Rd
13A034484 16:29:13 27 Reckless Dri 121xx Water St
13A034483 16:36:58 27 Reckless Dri 114xx Us 33 & Carroll Rd
13A034481 16:37:23 30 Traffic Stop 11xx Crescent Ave
13A034482 16:40:53 30 Traffic Stop 108xx Irving Rd & Sr 37
13A034485 16:43:59 33 Disabled Veh 118xx Lima Rd & Carroll Rd
13A034486 16:46:08 14s Serving War 4xx Calhoun St S
13A034487 16:55:01 30 Traffic Stop 12xx Crescent Ave
13A034488 16:56:41 35 Parked Vehic 101xx Clinton St N & Mayhew Rd
13A034489 17:06:41 17 Motor Check 88xx Strathmore Ln
13A034490 17:17:15 23jo 16xx Beineke Rd & Bass Rd
13A034491 17:29:56 30 Traffic Stop 10xx Tecumseh St & Lake Ave
13A034492 17:30:18 25 Pd Accident 58xx Huguenard Rd & Washington Cen
13A034493 17:34:54 33 Disabled Veh 109xx Us 30 W & Felger Rd
13A034494 17:38:50 911 Hang Up 190xx Old Us 24 E
13A034495 17:44:13 14s Serving War 113xx Twin Creeks Dr
13A034496 18:11:49 30 Traffic Stop 100xx State Line Rd S & Us 30 E
13A034497 18:23:52 38 Lost/stolen 121xx School St
13A034498 18:29:31 30 Traffic Stop 167xx Us 30 E & Webster Rd S
13A034499 18:31:14 14s Serving War 54xx Devils Hollow Rd
13A034500 18:31:32 46 Domestic 71xx Snyder Rd
13A034501 18:32:52 25 Pd Accident 181xx Amstutz Rd & Garman Rd
13A034502 18:36:31 102,tx Threats 11xx Manck Dr
13A034503 18:42:30 80 Civil Invest Xx Surrey Ln
13A034504 18:46:45 14s Serving War 57xx Falls Dr
13A034505 19:14:20 911 Hang Up 173xx Hand Rd
13A034508 19:26:52 14 Warrant 3xx Kinnaird Ave
13A034506 19:30:41 40a Audible 39xx Heron Preserve Trl
13A034507 19:50:03 63 Contact 15xx Webster Rd S
13A034509 20:20:40 14s Serving War 42xx Southwayne Ave
13A034510 20:46:27 30 Traffic Stop 149xx Us 30 W & Westcounty Line Rd
13A034511 20:48:52 111d Dog 6xx West St
13A034512 21:15:12 14s Serving War 17xx State Blvd E
13A034513 21:15:35 14s Serving War 18xx Kentucky Ave
13A034514 21:17:09 99 Narcotics 103xx Clinton St N
13A034515 21:34:13 65t Suicide Thr 9xx Manck Dr
13A034516 21:51:58 911 Hang Up 8xx Sutton Ave
13A034517 21:54:07 14s Serving War 18xx Kentucky Ave
13A034518 22:22:26 48,36 114xx Ernst Rd
13A034519 22:31:06 46,96 Xx Surrey Ln
13A034520 22:47:51 15 Assist 8xx Lincoln Hwy E
13A034521 22:58:50 129 46xx Allen Martin Dr & Meyer Rd
13A034522 23:08:45 15 Assist 60xx Moeller Rd
13A034523 23:37:58 30 Traffic Stop 110xx Schlatter Rd & Lochner Rd
13A034524 23:52:38 44lm 173xx Sr 37